552  
ASUS44 KMOB 241013  
RWRMOB  
REGIONAL WEATHER ROUNDUP  
NATIONAL WEATHER SERVICE MOBILE AL  
500 AM CDT THU AUG 24 2017  
 
NOTE: "FAIR" INDICATES FEW OR NO CLOUDS BELOW 12,000 FEET WITH NO  
SIGNIFICANT WEATHER AND/OR S TO VISIBILITY
.  
 
* THESE STATIONS ARE PART OF THE UNIVERSITY OF SOUTH ALABAMA  
MESONET AND ARE NOT UNDER NWS OR FAA QUALITY CONTROL.
 
 
ALZ061>064-241100-  
COASTAL ALABAMA  
 
CITY SKY/WX TMP DP RH WIND PRES REMARKS
 
MOBILE REG APT MOCLDY 76 72 87 N5 29.90R  
BROOKLEY FIELD MOCLDY 77 76 96 NW6 29.90R  
USA CAMPUS* N/A 70 68 94 CALM 29.89S  
DOG RIVER* NOT AVBL  
 
 
CITY SKY/WX TMP DP RH WIND PRES REMARKS
 
GULF SHORES PTCLDY 73 73 100 CALM 29.88R  
 

 
 
ALZ051>060-241100-  
INTERIOR SOUTHWEST AND SOUTH CENTRAL ALABAMA  
 
CITY SKY/WX TMP DP RH WIND PRES REMARKS
 
GREENVILLE MOCLDY 73 68 84 N3 29.90F  
EVERGREEN MOCLDY 75 73 93 N3 29.89F  
ATMORE* NOT AVBL  
ANDALUSIA/OPP PTCLDY 77 71 82 CALM 29.89S  
ANDALUSIA* N/A 73 72 94 N5 29.90R  
FLORALA APT N/A N/A N/A N/A MISG 29.90S  
FLORALA* N/A 73 72 94 CALM 30.54S  
 

 
 
FLZ001>006-241100-  
WESTERN FLORIDA PANHANDLE  
 
CITY SKY/WX TMP DP RH WIND PRES REMARKS
 
PENSACOLA MOCLDY 78 72 81 N6 29.87S  
NAS PENSACOLA MOCLDY 76 72 87 N3 29.86F  
MILTON PTCLDY 74 73 97 N3 29.88S  
WHTNG S FIELD PTCLDY 76 73 91 N7 29.88S  
 
 
CITY SKY/WX TMP DP RH WIND PRES REMARKS
 
JAY* N/A 73 73 100 N2 29.89S  
DUKE FIELD CLOUDY 73 72 96 CALM 29.87S  
CRESTVIEW MOCLDY 74 71 91 CALM 29.89S  
VALPARAISO MOCLDY 76 73 87 N6 29.86S  
DESTIN PTCLDY 82 73 74 N6 29.86S  
 

 
 
MSZ076-079-241100-  
INTERIOR SOUTHEAST MISSISSIPPI  
 
CITY SKY/WX TMP DP RH WIND PRES REMARKS
 
LEAKESVILLE* N/A 73 73 100 CALM 29.91F  
AGRICOLA* N/A 73 73 100 N3 29.89S  
 

 
 
MARINE OBSERVATIONS  
 
STATION/POSITION TIME TEMP WIND PRES WAVE
 
AIR SEA DIR/SP/G HT/PER  
(UTC) (F) (DEG/KT/KT) (MB) (FT/S)  
PASCAGOULA 0948 78 10/ 4/ 5 1011.6R  
PETIT BOIS ISLND 0948 81 40/ 7/ 8 1012.4S  
GRAND BAY 0845 76 360/ 3 1013.0S  
KATRINA CUT 0930 81 10/ 7 1011.5F  
CEDAR POINT 0930 79 10/ 4 1011.9S  
E DAUPHIN ISLAND 1000 82 10/ 7/ 8 1011.4R  
MIDDLE BAY LIGHT 0930 81 10/ 8 1011.9R  
USCG MOBILE BAY 0948 76 86 340/ 2/ 5 1012.6R  
STATE DOCKS 0936 78 1011.8R  
MEAHER PARK 0930 76 360/ 3 1011.9R  
WEEKS BAY 0845 74 N/A  
FORT MORGAN 0948 81 40/ 6/ 8 N/A  
12 S ORANGE BCH 0950 83 87 20/ 12/ 12 1011.1R 1/ 6  
PENSACOLA BAY 0936 78 87 1011.6F  
64 S DAUPHIN ISL 0950 84 CALM 1011.2R 1/ 6  
67 S FORT MORGAN 0930 83 CALM 1010.8S  
 

 
 
SELECTED LOCATIONS ACROSS THE REGION  
 
CITY SKY/WX TMP DP RH WIND PRES REMARKS
 
NEW ORLEANS CLOUDY 82 76 81 E5 29.87S  
GULFPORT CLOUDY 77 74 90 CALM 29.88R  
PASCAGOULA AP LGT RAIN 75 72 90 CALM 29.88S  
PASCAGOULA* N/A N/A N/A N/A CALM N/A  
HATTIESBURG MOCLDY 75 74 96 N3 29.91S  
LAUREL CLOUDY 73 72 96 N6 29.92S  
MERIDIAN CLOUDY 75 68 78 NE5 29.94R  
JACKSON MOCLDY 75 72 90 NE8 29.94R  
MONTGOMERY PTCLDY 75 67 76 N3 29.91S  
TROY CLEAR 73 71 93 N6 29.90F  
ASHFORD* N/A 73 72 94 N5 29.90R  
DOTHAN MOCLDY 75 74 96 N6 29.91F  
PANAMA CITY PTCLDY 76 73 91 NW6 29.84S  
 

 
 
 
 
CLICK HERE TO GO TO PREVIOUS BULLETINS.

The Nexlab AL Page
The Nexlab FL Page
The Nexlab MS Page Main Text Page